| time (UTC) | temp F | wind direction | speed MPH | gust MPH | rain 1hr in | rain 24hr in | rain mn in | humidity % | barometer mb |
| 20260507151022 | 56 | 45 | 0.0 | 2.0 | 0.00 | 0.08 | 0.08 | 60 | 1008.6 |
| 20260507150519 | 56 | 248 | 2.0 | 2.0 | 0.00 | 0.08 | 0.08 | 61 | 1008.8 |
| 20260507150016 | 56 | 327 | 2.0 | 3.0 | 0.00 | 0.08 | 0.08 | 60 | 1008.7 |
| 20260507145510 | 56 | 5 | 0.0 | 3.0 | 0.00 | 0.08 | 0.08 | 60 | 1008.4 |
| 20260507145009 | 55 | 346 | 1.0 | 2.0 | 0.00 | 0.08 | 0.08 | 63 | 1008.7 |
| 20260507144505 | 55 | 126 | 0.0 | 3.0 | 0.00 | 0.08 | 0.08 | 62 | 1008.8 |
| 20260507144002 | 55 | 25 | 0.0 | 3.0 | 0.00 | 0.08 | 0.08 | 62 | 1008.9 |
| 20260507143459 | 55 | 28 | 4.0 | 4.0 | 0.00 | 0.08 | 0.08 | 61 | 1009.0 |
| 20260507142956 | 54 | 60 | 0.0 | 4.0 | 0.00 | 0.08 | 0.08 | 62 | 1008.8 |
| 20260507142452 | 55 | 32 | 0.0 | 2.0 | 0.00 | 0.08 | 0.08 | 62 | 1009.4 |
| 20260507141949 | 55 | 102 | 0.0 | 5.0 | 0.00 | 0.08 | 0.08 | 62 | 1009.4 |
| 20260507141445 | 54 | 165 | 0.0 | 1.0 | 0.00 | 0.08 | 0.08 | 61 | 1009.0 |
| 20260507140942 | 54 | 29 | 3.0 | 4.0 | 0.00 | 0.08 | 0.08 | 62 | 1009.1 |
| 20260507140438 | 54 | 41 | 2.0 | 6.0 | 0.00 | 0.08 | 0.08 | 63 | 1009.3 |
| 20260507135936 | 54 | 56 | 2.0 | 4.0 | 0.00 | 0.08 | 0.08 | 61 | 1009.4 |
| 20260507135433 | 54 | 23 | 2.0 | 4.0 | 0.00 | 0.08 | 0.08 | 63 | 1009.3 |
| 20260507134930 | 54 | 52 | 4.0 | 5.0 | 0.00 | 0.08 | 0.08 | 62 | 1009.3 |
| 20260507134427 | 54 | 29 | 0.0 | 4.0 | 0.00 | 0.08 | 0.08 | 63 | 1009.5 |
| 20260507133923 | 54 | 11 | 2.0 | 4.0 | 0.00 | 0.08 | 0.08 | 62 | 1009.7 |
| 20260507133419 | 54 | 11 | 1.0 | 1.0 | 0.00 | 0.08 | 0.08 | 66 | 1009.7 |
| 20260507132917 | 54 | 0 | 2.0 | 2.0 | 0.00 | 0.08 | 0.08 | 65 | 1009.7 |
| 20260507132413 | 54 | 75 | 0.0 | 1.0 | 0.00 | 0.08 | 0.08 | 65 | 1009.7 |
| 20260507131910 | 54 | 157 | 0.0 | 2.0 | 0.00 | 0.08 | 0.08 | 64 | 1009.5 |
| 20260507131407 | 54 | 68 | 2.0 | 4.0 | 0.00 | 0.08 | 0.08 | 64 | 1009.5 |
| 20260507130904 | 54 | 56 | 2.0 | 3.0 | 0.00 | 0.08 | 0.08 | 63 | 1009.5 |
| 20260507130401 | 54 | 180 | 0.0 | 8.0 | 0.00 | 0.08 | 0.08 | 63 | 1009.3 |
| 20260507125900 | 54 | 53 | 3.0 | 5.0 | 0.00 | 0.08 | 0.08 | 65 | 1009.0 |
| 20260507125357 | 54 | 41 | 5.0 | 5.0 | 0.00 | 0.08 | 0.08 | 64 | 1009.3 |
| 20260507124854 | 54 | 12 | 0.0 | 5.0 | 0.00 | 0.08 | 0.08 | 65 | 1009.4 |
| 20260507124350 | 54 | 29 | 3.0 | 4.0 | 0.00 | 0.08 | 0.08 | 65 | 1009.4 |
| 20260507123849 | 54 | 159 | 2.0 | 3.0 | 0.00 | 0.08 | 0.08 | 65 | 1009.1 |
| 20260507123345 | 54 | 146 | 0.0 | 5.0 | 0.00 | 0.08 | 0.08 | 66 | 1009.0 |
| 20260507122842 | 54 | 0 | 0.0 | 3.0 | 0.00 | 0.08 | 0.08 | 68 | 1009.0 |
| 20260507122337 | 54 | 32 | 3.0 | 6.0 | 0.00 | 0.08 | 0.08 | 66 | 1009.1 |
| 20260507121834 | 54 | 21 | 2.0 | 5.0 | 0.00 | 0.08 | 0.08 | 66 | 1009.1 |
| 20260507121329 | 54 | 270 | 0.0 | 5.0 | 0.00 | 0.08 | 0.08 | 67 | 1009.4 |
| 20260507120826 | 54 | 7 | 1.0 | 5.0 | 0.00 | 0.08 | 0.08 | 65 | 1009.1 |
| 20260507120322 | 54 | 37 | 0.0 | 3.0 | 0.00 | 0.08 | 0.08 | 67 | 1009.0 |
| 20260507115819 | 54 | 87 | 4.0 | 4.0 | 0.00 | 0.08 | 0.08 | 68 | 1009.3 |
| 20260507115314 | 54 | 90 | 0.0 | 4.0 | 0.00 | 0.08 | 0.08 | 68 | 1009.1 |
| 20260507114810 | 55 | 19 | 3.0 | 5.0 | 0.00 | 0.08 | 0.08 | 69 | 1009.1 |
| 20260507114308 | 55 | 33 | 2.0 | 6.0 | 0.00 | 0.08 | 0.08 | 71 | 1008.9 |
| 20260507113805 | 55 | 342 | 1.0 | 9.0 | 0.00 | 0.08 | 0.08 | 69 | 1008.8 |
| 20260507113302 | 55 | 342 | 1.0 | 5.0 | 0.00 | 0.08 | 0.08 | 75 | 1008.8 |
| 20260507112800 | 55 | 68 | 3.0 | 5.0 | 0.00 | 0.08 | 0.08 | 77 | 1008.4 |
| 20260507112256 | 55 | 90 | 1.0 | 5.0 | 0.00 | 0.08 | 0.08 | 78 | 1008.6 |
| 20260507111755 | 55 | 355 | 0.0 | 5.0 | 0.00 | 0.08 | 0.08 | 80 | 1008.3 |
| 20260507111250 | 55 | 36 | 0.0 | 4.0 | 0.00 | 0.08 | 0.08 | 79 | 1008.5 |
| 20260507110747 | 55 | 172 | 0.0 | 1.0 | 0.00 | 0.08 | 0.08 | 80 | 1008.5 |
| 20260507110243 | 55 | 63 | 2.0 | 3.0 | 0.00 | 0.08 | 0.08 | 80 | 1008.4 |
| 20260507105740 | 55 | 45 | 2.0 | 5.0 | 0.00 | 0.08 | 0.08 | 81 | 1008.5 |
| 20260507105236 | 54 | 33 | 3.0 | 4.0 | 0.00 | 0.08 | 0.08 | 83 | 1008.3 |
| 20260507104734 | 54 | 140 | 0.0 | 2.0 | 0.00 | 0.08 | 0.08 | 84 | 1008.5 |
| 20260507104230 | 54 | 54 | 0.0 | 2.0 | 0.00 | 0.08 | 0.08 | 85 | 1008.4 |
| 20260507103726 | 54 | 105 | 1.0 | 2.0 | 0.00 | 0.08 | 0.08 | 86 | 1008.5 |
| 20260507103223 | 54 | 126 | 1.0 | 1.0 | 0.00 | 0.08 | 0.08 | 87 | 1008.2 |
| 20260507102719 | 54 | 90 | 0.0 | 4.0 | 0.00 | 0.08 | 0.08 | 87 | 1008.2 |
| 20260507102216 | 54 | 106 | 0.0 | 1.0 | 0.00 | 0.08 | 0.08 | 87 | 1008.3 |
| 20260507101712 | 55 | 157 | 0.0 | 1.0 | 0.00 | 0.08 | 0.08 | 87 | 1008.0 |
| 20260507101207 | 54 | 90 | 0.0 | 1.0 | 0.00 | 0.08 | 0.08 | 87 | 1007.9 |
| 20260507100705 | 54 | 99 | 0.0 | 0.0 | 0.00 | 0.08 | 0.08 | 87 | 1008.2 |
| 20260507100203 | 55 | 90 | 0.0 | 2.0 | 0.00 | 0.08 | 0.08 | 87 | 1007.9 |
| 20260507095701 | 55 | 66 | 0.0 | 3.0 | 0.00 | 0.08 | 0.08 | 87 | 1007.9 |
| 20260507095157 | 55 | 325 | 0.0 | 5.0 | 0.00 | 0.08 | 0.08 | 88 | 1008.0 |
| 20260507094654 | 55 | 117 | 1.0 | 2.0 | 0.00 | 0.08 | 0.08 | 89 | 1008.0 |
| 20260507094150 | 55 | 82 | 0.0 | 2.0 | 0.00 | 0.08 | 0.08 | 90 | 1007.8 |
| 20260507093648 | 55 | 15 | 1.0 | 1.0 | 0.00 | 0.08 | 0.08 | 90 | 1008.2 |
| 20260507093146 | 55 | 57 | 2.0 | 2.0 | 0.00 | 0.08 | 0.08 | 89 | 1007.9 |
| 20260507092643 | 55 | 49 | 0.0 | 2.0 | 0.00 | 0.08 | 0.08 | 90 | 1007.9 |
| 20260507092139 | 55 | 43 | 4.0 | 4.0 | 0.00 | 0.08 | 0.08 | 91 | 1007.7 |
| 20260507091636 | 55 | 57 | 0.0 | 2.0 | 0.00 | 0.08 | 0.08 | 91 | 1007.8 |
| 20260507091132 | 54 | 175 | 1.0 | 1.0 | 0.00 | 0.08 | 0.08 | 90 | 1007.7 |
| 20260507090628 | 54 | 20 | 3.0 | 4.0 | 0.00 | 0.08 | 0.08 | 90 | 1007.5 |
| 20260507090125 | 55 | 105 | 0.0 | 2.0 | 0.00 | 0.08 | 0.08 | 90 | 1007.6 |
| 20260507085622 | 55 | 30 | 2.0 | 3.0 | 0.00 | 0.08 | 0.08 | 90 | 1007.6 |
| 20260507085119 | 54 | 53 | 0.0 | 4.0 | 0.00 | 0.08 | 0.08 | 91 | 1007.6 |
| 20260507084615 | 54 | 60 | 0.0 | 2.0 | 0.00 | 0.08 | 0.08 | 92 | 1007.8 |
| 20260507084112 | 55 | 90 | 0.0 | 1.0 | 0.00 | 0.08 | 0.08 | 92 | 1007.8 |
| 20260507083609 | 55 | 23 | 0.0 | 2.0 | 0.00 | 0.08 | 0.08 | 92 | 1007.8 |
| 20260507083106 | 55 | 90 | 0.0 | 1.0 | 0.00 | 0.08 | 0.08 | 91 | 1007.8 |
| 20260507082602 | 55 | 105 | 0.0 | 0.0 | 0.00 | 0.08 | 0.08 | 91 | 1007.7 |
| 20260507082058 | 55 | 23 | 0.0 | 3.0 | 0.00 | 0.08 | 0.08 | 91 | 1007.8 |
| 20260507081555 | 55 | 106 | 0.0 | 0.0 | 0.00 | 0.08 | 0.08 | 91 | 1007.8 |
| 20260507081052 | 55 | 23 | 0.0 | 2.0 | 0.00 | 0.08 | 0.08 | 91 | 1007.7 |
| 20260507080548 | 55 | 154 | 0.0 | 1.0 | 0.00 | 0.08 | 0.08 | 91 | 1007.6 |
| 20260507080044 | 55 | 60 | 0.0 | 2.0 | 0.00 | 0.08 | 0.08 | 91 | 1007.5 |
| 20260507075539 | 55 | 99 | 0.0 | 0.0 | 0.00 | 0.08 | 0.08 | 91 | 1007.3 |
| 20260507075036 | 55 | 0 | 0.0 | 3.0 | 0.00 | 0.08 | 0.08 | 91 | 1007.3 |
| 20260507074533 | 55 | 61 | 0.0 | 2.0 | 0.00 | 0.08 | 0.08 | 91 | 1007.0 |
| 20260507074032 | 55 | 180 | 0.0 | 3.0 | 0.00 | 0.08 | 0.08 | 92 | 1007.1 |
| 20260507073527 | 55 | 53 | 0.0 | 2.0 | 0.00 | 0.08 | 0.08 | 91 | 1007.0 |
| 20260507073024 | 55 | 68 | 3.0 | 4.0 | 0.00 | 0.08 | 0.08 | 92 | 1007.0 |
| 20260507072521 | 55 | 98 | 0.0 | 1.0 | 0.00 | 0.08 | 0.08 | 92 | 1007.2 |
| 20260507072018 | 55 | 28 | 0.0 | 2.0 | 0.00 | 0.08 | 0.08 | 92 | 1007.2 |
| 20260507071516 | 55 | 241 | 2.0 | 3.0 | 0.00 | 0.08 | 0.08 | 92 | 1006.8 |
| 20260507071012 | 55 | 180 | 1.0 | 3.0 | 0.00 | 0.08 | 0.08 | 92 | 1007.1 |
| 20260507070509 | 55 | 200 | 0.0 | 2.0 | 0.00 | 0.08 | 0.08 | 91 | 1006.9 |
| 20260507070010 | 55 | 90 | 1.0 | 3.0 | 0.00 | 0.08 | 0.08 | 92 | 1007.1 |
| 20260507065502 | 55 | 72 | 2.0 | 7.0 | 0.00 | 0.08 | 0.08 | 92 | 1007.2 |
| 20260507065000 | 55 | 21 | 0.0 | 4.0 | 0.00 | 0.08 | 0.08 | 92 | 1007.2 |
| 20260507064458 | 55 | 17 | 2.0 | 6.0 | 0.00 | 0.08 | 0.08 | 93 | 1007.1 |
| 20260507063956 | 55 | 8 | 0.0 | 2.0 | 0.00 | 0.08 | 0.08 | 93 | 1006.8 |
| 20260507063453 | 55 | 270 | 1.0 | 6.0 | 0.00 | 0.08 | 0.08 | 94 | 1007.1 |
| 20260507062950 | 55 | 8 | 2.0 | 4.0 | 0.00 | 0.08 | 0.08 | 94 | 1007.4 |
| 20260507062447 | 55 | 8 | 0.0 | 3.0 | 0.00 | 0.08 | 0.08 | 94 | 1007.2 |
| 20260507061944 | 55 | 60 | 0.0 | 5.0 | 0.00 | 0.08 | 0.08 | 94 | 1007.1 |
| 20260507061442 | 55 | 110 | 2.0 | 4.0 | 0.00 | 0.08 | 0.08 | 95 | 1007.3 |
| 20260507060940 | 55 | 45 | 0.0 | 3.0 | 0.00 | 0.08 | 0.08 | 95 | 1007.2 |
| 20260507060437 | 55 | 56 | 2.0 | 4.0 | 0.00 | 0.08 | 0.08 | 94 | 1007.0 |
| 20260507055933 | 55 | 20 | 0.0 | 4.0 | 0.00 | 0.08 | 0.08 | 94 | 1006.8 |
| 20260507055428 | 55 | 14 | 0.0 | 3.0 | 0.00 | 0.08 | 0.08 | 94 | 1006.8 |
| 20260507054926 | 55 | 126 | 1.0 | 2.0 | 0.00 | 0.08 | 0.08 | 94 | 1006.8 |
| 20260507054421 | 56 | 270 | 0.0 | 2.0 | 0.02 | 0.08 | 0.08 | 94 | 1007.0 |
| 20260507053919 | 56 | 251 | 0.0 | 5.0 | 0.00 | 0.07 | 0.07 | 94 | 1007.0 |
| 20260507053416 | 56 | 29 | 0.0 | 5.0 | 0.02 | 0.07 | 0.07 | 94 | 1006.8 |
| 20260507052915 | 56 | 28 | 4.0 | 5.0 | 0.05 | 0.07 | 0.07 | 94 | 1007.0 |
| 20260507052412 | 57 | 26 | 0.0 | 2.0 | 0.05 | 0.07 | 0.07 | 95 | 1007.4 |
| 20260507051909 | 56 | 84 | 0.0 | 1.0 | 0.05 | 0.07 | 0.07 | 94 | 1007.1 |
| 20260507051407 | 57 | 345 | 0.0 | 2.0 | 0.02 | 0.06 | 0.06 | 94 | 1007.0 |
| 20260507050903 | 57 | 120 | 0.0 | 2.0 | 0.00 | 0.06 | 0.06 | 94 | 1007.0 |
| 20260507050400 | 57 | 29 | 1.0 | 3.0 | 0.02 | 0.06 | 0.06 | 93 | 1006.5 |
| 20260507045857 | 57 | 48 | 2.0 | 4.0 | 0.07 | 0.06 | 0.06 | 93 | 1006.8 |
| 20260507045353 | 57 | 195 | 2.0 | 2.0 | 0.12 | 0.05 | 0.05 | 93 | 1006.8 |
| 20260507044851 | 57 | 90 | 0.0 | 5.0 | 0.07 | 0.04 | 0.04 | 93 | 1006.8 |
| 20260507044347 | 58 | 63 | 0.0 | 3.0 | 0.00 | 0.03 | 0.03 | 93 | 1007.4 |
| 20260507043843 | 58 | 345 | 3.0 | 3.0 | 0.00 | 0.03 | 0.03 | 92 | 1007.0 |
| 20260507043340 | 58 | 52 | 2.0 | 4.0 | 0.02 | 0.03 | 0.03 | 92 | 1006.7 |
| 20260507042836 | 58 | 24 | 3.0 | 5.0 | 0.00 | 0.03 | 0.03 | 92 | 1006.7 |
| 20260507042332 | 59 | 8 | 0.0 | 3.0 | 0.00 | 0.03 | 0.03 | 93 | 1007.4 |
| 20260507041829 | 59 | 94 | 0.0 | 2.0 | 0.07 | 0.03 | 0.03 | 91 | 1007.7 |
| 20260507041325 | 60 | 117 | 1.0 | 2.0 | 0.14 | 0.02 | 0.02 | 90 | 1007.6 |
| 20260507040823 | 60 | 166 | 1.0 | 3.0 | 0.07 | 0.01 | 0.01 | 87 | 1007.3 |
| 20260507040319 | 60 | 11 | 4.0 | 5.0 | 0.02 | 0.00 | 0.00 | 88 | 1007.1 |
| 20260507035814 | 60 | 194 | 0.0 | 2.0 | 0.02 | 0.35 | 0.35 | 87 | 1007.0 |
| 20260507035310 | 61 | 355 | 1.0 | 2.0 | 0.05 | 0.35 | 0.35 | 86 | 1006.7 |
| 20260507034808 | 61 | 195 | 0.0 | 4.0 | 0.02 | 0.34 | 0.34 | 84 | 1006.5 |
| 20260507034305 | 62 | 36 | 3.0 | 5.0 | 0.00 | 0.34 | 0.34 | 83 | 1006.6 |
| 20260507033803 | 62 | 109 | 0.0 | 5.0 | 0.00 | 0.34 | 0.34 | 84 | 1006.5 |
| 20260507033301 | 62 | 34 | 3.0 | 5.0 | 0.00 | 0.34 | 0.34 | 84 | 1006.6 |
| 20260507032757 | 62 | 345 | 0.0 | 2.0 | 0.00 | 0.34 | 0.34 | 86 | 1006.6 |
| 20260507032253 | 63 | 187 | 2.0 | 2.0 | 0.00 | 0.34 | 0.34 | 86 | 1006.4 |
| 20260507031750 | 63 | 135 | 2.0 | 3.0 | 0.00 | 0.34 | 0.34 | 84 | 1006.3 |
| 20260507031247 | 63 | 348 | 1.0 | 4.0 | 0.00 | 0.34 | 0.34 | 84 | 1006.5 |
| 20260507030743 | 63 | 5 | 0.0 | 3.0 | 0.00 | 0.34 | 0.34 | 84 | 1006.6 |
| 20260507030241 | 64 | 279 | 0.0 | 3.0 | 0.00 | 0.34 | 0.34 | 83 | 1006.6 |
| 20260507025738 | 64 | 23 | 0.0 | 4.0 | 0.00 | 0.34 | 0.34 | 83 | 1006.1 |
| 20260507025235 | 64 | 8 | 0.0 | 3.0 | 0.00 | 0.34 | 0.34 | 82 | 1005.9 |
| 20260507024733 | 64 | 354 | 1.0 | 2.0 | 0.00 | 0.34 | 0.34 | 83 | 1005.9 |
| 20260507024230 | 64 | 346 | 0.0 | 3.0 | 0.00 | 0.34 | 0.34 | 83 | 1005.7 |
| 20260507023726 | 64 | 255 | 1.0 | 4.0 | 0.00 | 0.34 | 0.34 | 83 | 1005.7 |
| 20260507023223 | 64 | 209 | 1.0 | 3.0 | 0.00 | 0.34 | 0.34 | 84 | 1006.1 |
| 20260507022720 | 64 | 53 | 6.0 | 6.0 | 0.00 | 0.34 | 0.34 | 84 | 1006.0 |
| 20260507022216 | 64 | 20 | 0.0 | 3.0 | 0.00 | 0.34 | 0.34 | 86 | 1005.8 |
| 20260507021712 | 64 | 338 | 0.0 | 7.0 | 0.00 | 0.34 | 0.34 | 87 | 1005.8 |
| 20260507021208 | 64 | 199 | 0.0 | 3.0 | 0.00 | 0.34 | 0.34 | 88 | 1005.9 |
| 20260507020707 | 64 | 287 | 0.0 | 2.0 | 0.00 | 0.34 | 0.34 | 88 | 1005.6 |
| 20260507020202 | 64 | 90 | 0.0 | 3.0 | 0.00 | 0.34 | 0.34 | 88 | 1005.5 |
| 20260507015700 | 64 | 97 | 0.0 | 2.0 | 0.00 | 0.34 | 0.34 | 88 | 1005.4 |
| 20260507015158 | 64 | 24 | 2.0 | 3.0 | 0.00 | 0.34 | 0.34 | 88 | 1005.5 |
| 20260507014654 | 64 | 48 | 0.0 | 3.0 | 0.00 | 0.34 | 0.34 | 89 | 1005.7 |
| 20260507014150 | 64 | 58 | 0.0 | 5.0 | 0.00 | 0.34 | 0.34 | 89 | 1005.9 |
| 20260507013647 | 65 | 215 | 0.0 | 1.0 | 0.02 | 0.34 | 0.34 | 90 | 1005.7 |
| 20260507013144 | 65 | 65 | 0.0 | 3.0 | 0.07 | 0.34 | 0.34 | 90 | 1005.5 |
| 20260507012642 | 66 | 240 | 0.0 | 6.0 | 0.14 | 0.34 | 0.34 | 89 | 1005.2 |
| 20260507012137 | 66 | 262 | 0.0 | 7.0 | 0.09 | 0.33 | 0.33 | 87 | 1005.6 |
| 20260507011635 | 67 | 65 | 2.0 | 8.0 | 0.00 | 0.31 | 0.31 | 85 | 1005.7 |
| 20260507011131 | 67 | 233 | 0.0 | 2.0 | 0.00 | 0.31 | 0.31 | 86 | 1005.8 |
| 20260507010626 | 67 | 283 | 3.0 | 4.0 | 0.00 | 0.31 | 0.31 | 86 | 1005.8 |
| 20260507010122 | 67 | 234 | 1.0 | 4.0 | 0.00 | 0.31 | 0.31 | 88 | 1005.9 |
| 20260507005620 | 68 | 200 | 0.0 | 2.0 | 0.00 | 0.31 | 0.31 | 88 | 1005.9 |
| 20260507005116 | 68 | 337 | 0.0 | 0.0 | 0.00 | 0.31 | 0.31 | 88 | 1005.5 |
| 20260507004613 | 68 | 75 | 0.0 | 2.0 | 0.00 | 0.31 | 0.31 | 88 | 1005.3 |
| 20260507004110 | 68 | 12 | 1.0 | 2.0 | 0.00 | 0.31 | 0.31 | 87 | 1005.3 |
| 20260507003606 | 68 | 33 | 2.0 | 3.0 | 0.00 | 0.31 | 0.31 | 87 | 1005.6 |
| 20260507003101 | 68 | 90 | 0.0 | 1.0 | 0.00 | 0.31 | 0.31 | 87 | 1005.5 |
| 20260507002558 | 68 | 29 | 0.0 | 2.0 | 0.00 | 0.31 | 0.31 | 86 | 1005.4 |
| 20260507002054 | 68 | 0 | 0.0 | 2.0 | 0.00 | 0.31 | 0.31 | 86 | 1005.3 |
| 20260507001551 | 68 | 22 | 2.0 | 2.0 | 0.00 | 0.31 | 0.31 | 86 | 1005.3 |
| 20260507001048 | 68 | 66 | 0.0 | 0.0 | 0.00 | 0.31 | 0.31 | 86 | 1005.3 |
| 20260507000544 | 69 | 66 | 0.0 | 0.0 | 0.00 | 0.31 | 0.31 | 86 | 1005.3 |
| 20260507000040 | 69 | 66 | 0.0 | 1.0 | 0.00 | 0.31 | 0.31 | 85 | 1005.0 |
| 20260506235538 | 69 | 75 | 0.0 | 0.0 | 0.00 | 0.31 | 0.31 | 84 | 1005.0 |
| 20260506235033 | 69 | 75 | 0.0 | 1.0 | 0.00 | 0.31 | 0.31 | 83 | 1004.7 |
| 20260506234531 | 69 | 11 | 0.0 | 0.0 | 0.00 | 0.31 | 0.31 | 83 | 1004.7 |
| 20260506234027 | 69 | 195 | 0.0 | 2.0 | 0.00 | 0.31 | 0.31 | 83 | 1004.8 |
| 20260506233524 | 70 | 106 | 0.0 | 0.0 | 0.00 | 0.31 | 0.31 | 82 | 1004.6 |
| 20260506233021 | 70 | 172 | 0.0 | 0.0 | 0.00 | 0.31 | 0.31 | 82 | 1004.5 |
| 20260506232517 | 70 | 270 | 0.0 | 2.0 | 0.00 | 0.31 | 0.31 | 82 | 1004.4 |
| 20260506232013 | 70 | 245 | 0.0 | 2.0 | 0.00 | 0.31 | 0.31 | 81 | 1004.2 |
| 20260506231511 | 70 | 254 | 0.0 | 2.0 | 0.00 | 0.31 | 0.31 | 81 | 1004.2 |
| 20260506231009 | 70 | 299 | 0.0 | 3.0 | 0.00 | 0.31 | 0.31 | 82 | 1004.3 |
| 20260506230504 | 70 | 18 | 0.0 | 2.0 | 0.00 | 0.31 | 0.31 | 81 | 1004.3 |
| 20260506230002 | 70 | 200 | 0.0 | 4.0 | 0.00 | 0.31 | 0.31 | 81 | 1004.1 |
| 20260506225459 | 70 | 90 | 0.0 | 0.0 | 0.00 | 0.31 | 0.31 | 81 | 1004.4 |
| 20260506224955 | 70 | 180 | 2.0 | 3.0 | 0.00 | 0.31 | 0.31 | 81 | 1004.4 |
| 20260506224452 | 70 | 147 | 0.0 | 5.0 | 0.00 | 0.31 | 0.31 | 80 | 1004.3 |
| 20260506223948 | 70 | 201 | 2.0 | 5.0 | 0.00 | 0.31 | 0.31 | 80 | 1004.4 |
| 20260506223444 | 71 | 206 | 0.0 | 3.0 | 0.00 | 0.31 | 0.31 | 80 | 1004.2 |
| 20260506222942 | 71 | 176 | 0.0 | 3.0 | 0.00 | 0.31 | 0.31 | 79 | 1004.0 |
| 20260506222438 | 71 | 225 | 2.0 | 2.0 | 0.00 | 0.31 | 0.31 | 80 | 1004.2 |
| 20260506221935 | 70 | 344 | 0.0 | 3.0 | 0.00 | 0.31 | 0.31 | 80 | 1004.2 |
| 20260506221432 | 70 | 218 | 0.0 | 4.0 | 0.00 | 0.31 | 0.31 | 79 | 1004.2 |
| 20260506220930 | 70 | 168 | 3.0 | 10.0 | 0.00 | 0.31 | 0.31 | 78 | 1004.2 |
| 20260506220425 | 70 | 331 | 0.0 | 4.0 | 0.00 | 0.31 | 0.31 | 80 | 1004.2 |
| 20260506215922 | 70 | 262 | 4.0 | 4.0 | 0.00 | 0.31 | 0.31 | 79 | 1004.1 |
| 20260506215418 | 71 | 246 | 0.0 | 3.0 | 0.00 | 0.31 | 0.31 | 79 | 1004.2 |
| 20260506214914 | 70 | 295 | 2.0 | 4.0 | 0.00 | 0.31 | 0.31 | 79 | 1004.1 |
| 20260506214411 | 70 | 12 | 0.0 | 7.0 | 0.00 | 0.31 | 0.31 | 80 | 1004.3 |
| 20260506213909 | 70 | 342 | 6.0 | 6.0 | 0.00 | 0.31 | 0.31 | 80 | 1004.1 |
| 20260506213406 | 70 | 243 | 0.0 | 3.0 | 0.00 | 0.31 | 0.31 | 80 | 1004.1 |
| 20260506212904 | 70 | 180 | 2.0 | 5.0 | 0.00 | 0.31 | 0.31 | 80 | 1004.1 |
| 20260506212359 | 70 | 20 | 4.0 | 7.0 | 0.00 | 0.31 | 0.31 | 80 | 1004.3 |
| 20260506211854 | 70 | 342 | 0.0 | 5.0 | 0.00 | 0.31 | 0.31 | 81 | 1004.2 |
| 20260506211350 | 70 | 0 | 2.0 | 5.0 | 0.00 | 0.31 | 0.31 | 80 | 1004.1 |
| 20260506210848 | 69 | 276 | 0.0 | 6.0 | 0.00 | 0.31 | 0.31 | 80 | 1004.3 |
| 20260506210344 | 70 | 10 | 3.0 | 7.0 | 0.00 | 0.31 | 0.31 | 80 | 1004.3 |
| 20260506205842 | 70 | 79 | 0.0 | 5.0 | 0.00 | 0.31 | 0.31 | 80 | 1004.1 |
| 20260506205337 | 70 | 234 | 0.0 | 6.0 | 0.00 | 0.31 | 0.31 | 80 | 1004.0 |
| 20260506204834 | 70 | 295 | 2.0 | 6.0 | 0.00 | 0.31 | 0.31 | 80 | 1004.2 |
| 20260506204332 | 69 | 42 | 0.0 | 4.0 | 0.00 | 0.31 | 0.31 | 80 | 1003.8 |
| 20260506203829 | 70 | 289 | 1.0 | 4.0 | 0.00 | 0.31 | 0.31 | 80 | 1004.0 |
| 20260506203326 | 70 | 255 | 3.0 | 5.0 | 0.00 | 0.31 | 0.31 | 78 | 1004.0 |
| 20260506202823 | 70 | 2 | 3.0 | 5.0 | 0.00 | 0.31 | 0.31 | 80 | 1004.1 |
| 20260506202320 | 70 | 292 | 2.0 | 4.0 | 0.00 | 0.31 | 0.31 | 80 | 1004.0 |
| 20260506201816 | 70 | 290 | 0.0 | 9.0 | 0.00 | 0.31 | 0.31 | 80 | 1003.9 |
| 20260506201314 | 70 | 243 | 1.0 | 6.0 | 0.00 | 0.31 | 0.31 | 80 | 1003.8 |
| 20260506200811 | 69 | 4 | 2.0 | 5.0 | 0.00 | 0.31 | 0.31 | 81 | 1003.8 |
| 20260506200307 | 69 | 348 | 3.0 | 8.0 | 0.00 | 0.31 | 0.31 | 80 | 1004.2 |
| 20260506195803 | 69 | 270 | 1.0 | 5.0 | 0.00 | 0.31 | 0.31 | 81 | 1004.0 |
| 20260506195300 | 68 | 270 | 3.0 | 9.0 | 0.00 | 0.31 | 0.31 | 81 | 1004.0 |
| 20260506194758 | 69 | 0 | 3.0 | 4.0 | 0.00 | 0.31 | 0.31 | 82 | 1004.0 |
| 20260506194254 | 68 | 352 | 3.0 | 5.0 | 0.00 | 0.31 | 0.31 | 82 | 1004.4 |
| 20260506193752 | 68 | 237 | 2.0 | 8.0 | 0.00 | 0.31 | 0.31 | 81 | 1004.2 |
| 20260506193248 | 69 | 264 | 0.0 | 4.0 | 0.00 | 0.31 | 0.31 | 82 | 1004.1 |
| 20260506192744 | 69 | 151 | 1.0 | 5.0 | 0.00 | 0.31 | 0.31 | 82 | 1004.3 |
| 20260506192241 | 69 | 337 | 3.0 | 4.0 | 0.00 | 0.31 | 0.31 | 82 | 1004.4 |
| 20260506191738 | 68 | 244 | 5.0 | 9.0 | 0.00 | 0.31 | 0.31 | 82 | 1004.6 |
| 20260506191234 | 69 | 0 | 0.0 | 3.0 | 0.00 | 0.31 | 0.31 | 82 | 1004.5 |
| 20260506190732 | 68 | 278 | 0.0 | 4.0 | 0.00 | 0.31 | 0.31 | 83 | 1004.5 |
| 20260506190228 | 68 | 270 | 1.0 | 2.0 | 0.00 | 0.31 | 0.31 | 83 | 1004.7 |
| 20260506185725 | 68 | 180 | 0.0 | 4.0 | 0.00 | 0.31 | 0.31 | 84 | 1004.7 |
| 20260506185221 | 68 | 139 | 2.0 | 4.0 | 0.00 | 0.31 | 0.31 | 84 | 1004.8 |
| 20260506184719 | 67 | 187 | 1.0 | 4.0 | 0.00 | 0.31 | 0.31 | 84 | 1004.9 |
| 20260506184216 | 67 | 135 | 2.0 | 4.0 | 0.00 | 0.31 | 0.31 | 85 | 1005.1 |
| 20260506183713 | 67 | 150 | 0.0 | 5.0 | 0.00 | 0.31 | 0.31 | 85 | 1004.8 |
| 20260506183209 | 67 | 319 | 2.0 | 4.0 | 0.00 | 0.31 | 0.31 | 84 | 1005.0 |
| 20260506182706 | 67 | 278 | 3.0 | 6.0 | 0.00 | 0.31 | 0.31 | 84 | 1004.9 |
| 20260506182203 | 66 | 273 | 0.0 | 5.0 | 0.00 | 0.31 | 0.31 | 84 | 1004.9 |
| 20260506181701 | 67 | 66 | 1.0 | 3.0 | 0.00 | 0.31 | 0.31 | 84 | 1004.7 |
| 20260506181158 | 66 | 111 | 1.0 | 6.0 | 0.00 | 0.31 | 0.31 | 85 | 1004.9 |
| 20260506180655 | 66 | 288 | 3.0 | 7.0 | 0.00 | 0.31 | 0.31 | 85 | 1005.0 |
| 20260506180151 | 66 | 270 | 0.0 | 7.0 | 0.00 | 0.31 | 0.31 | 86 | 1005.0 |
| 20260506175647 | 65 | 283 | 1.0 | 5.0 | 0.00 | 0.31 | 0.31 | 85 | 1005.1 |
| 20260506175144 | 65 | 284 | 0.0 | 3.0 | 0.00 | 0.31 | 0.31 | 86 | 1005.0 |
| 20260506174637 | 66 | 0 | 3.0 | 8.0 | 0.00 | 0.31 | 0.31 | 86 | 1005.0 |
| 20260506174134 | 66 | 249 | 1.0 | 6.0 | 0.00 | 0.31 | 0.31 | 86 | 1005.2 |
| 20260506173631 | 65 | 8 | 2.0 | 5.0 | 0.00 | 0.31 | 0.31 | 86 | 1005.2 |
| 20260506173128 | 65 | 248 | 2.0 | 3.0 | 0.00 | 0.31 | 0.31 | 87 | 1005.3 |
| 20260506172625 | 65 | 352 | 0.0 | 5.0 | 0.00 | 0.31 | 0.31 | 87 | 1005.3 |
| 20260506172121 | 65 | 254 | 1.0 | 5.0 | 0.00 | 0.31 | 0.31 | 86 | 1005.3 |
| 20260506171619 | 64 | 12 | 1.0 | 4.0 | 0.00 | 0.31 | 0.31 | 87 | 1005.3 |
| 20260506171116 | 64 | 8 | 3.0 | 9.0 | 0.00 | 0.31 | 0.31 | 87 | 1005.3 |
| 20260506170614 | 64 | 146 | 3.0 | 8.0 | 0.00 | 0.31 | 0.31 | 88 | 1005.3 |
| 20260506170105 | 64 | 273 | 3.0 | 9.0 | 0.00 | 0.31 | 0.31 | 88 | 1005.1 |
| 20260506165604 | 64 | 277 | 0.0 | 12.0 | 0.00 | 0.31 | 0.31 | 88 | 1005.4 |
| 20260506165059 | 64 | 34 | 3.0 | 4.0 | 0.00 | 0.31 | 0.31 | 89 | 1005.3 |
| 20260506164557 | 64 | 32 | 2.0 | 5.0 | 0.00 | 0.31 | 0.31 | 90 | 1005.3 |
| 20260506164054 | 64 | 212 | 2.0 | 5.0 | 0.00 | 0.31 | 0.31 | 89 | 1005.4 |
| 20260506163549 | 64 | 140 | 2.0 | 6.0 | 0.00 | 0.31 | 0.31 | 89 | 1005.4 |
| 20260506163045 | 64 | 349 | 2.0 | 7.0 | 0.00 | 0.31 | 0.31 | 90 | 1005.3 |
| 20260506162541 | 64 | 90 | 0.0 | 10.0 | 0.00 | 0.31 | 0.31 | 90 | 1005.6 |
| 20260506162033 | 63 | 0 | 2.0 | 8.0 | 0.00 | 0.31 | 0.31 | 91 | 1005.6 |
| 20260506161531 | 63 | 8 | 3.0 | 8.0 | 0.00 | 0.31 | 0.31 | 93 | 1005.4 |
| 20260506161028 | 62 | 230 | 3.0 | 4.0 | 0.00 | 0.31 | 0.31 | 95 | 1005.6 |
| 20260506160525 | 61 | 195 | 3.0 | 7.0 | 0.00 | 0.31 | 0.31 | 97 | 1005.5 |
| 20260506160022 | 61 | 250 | 2.0 | 5.0 | 0.00 | 0.31 | 0.31 | 98 | 1005.6 |
| 20260506155521 | 61 | 279 | 0.0 | 7.0 | 0.00 | 0.31 | 0.31 | 98 | 1005.5 |
| 20260506153657 | 61 | 349 | 2.0 | 7.0 | 0.00 | 0.31 | 0.31 | 99 | 1005.7 |
| 20260506153155 | 61 | 294 | 3.0 | 7.0 | 0.00 | 0.31 | 0.31 | 99 | 1005.4 |
| 20260506152652 | 61 | 152 | 0.0 | 3.0 | 0.00 | 0.31 | 0.31 | 99 | 1005.4 |
| 20260506152149 | 61 | 201 | 3.0 | 10.0 | 0.00 | 0.31 | 0.31 | 99 | 1005.8 |
| 20260506151648 | 61 | 82 | 0.0 | 4.0 | 0.00 | 0.31 | 0.31 | 99 | 1005.8 |